User: anonymous   Login
Location: Stoke Bliss
(52.2667°N, 2.5167°W)
Time: 09:31:05
(UTC+00:00)
Language:

ERBS - Orbit

View from above orbital plane
View from above orbital plane
View from above satellite
View from above satellite

Ground track
Ground track

The orbit data is extracted from the following two-line orbital elements,

1 15354U 84108B   21133.36585556  .00006399  00000-0  10973-3 0  9992
2 15354  57.0053  79.8224 0007631   5.0205 355.0930 15.52556944 18753
Epoch (UTC): 13 May 2021 08:46:49
Eccentricity: 0.0007631
inclination: 57.0053°
perigee height: 404 km
apogee height: 414 km
right ascension of ascending node: 79.8224°
argument of perigee: 5.0205°
revolutions per day: 15.52556944
mean anomaly at epoch: 355.0930°
orbit number at epoch: 1875

The dashed part of the orbit path shows where the satellite is in the earth's shadow,  

DLR